User: anonymous   Login
Location: Corralito
(14.1667°N, 87.1833°W)
Time: 17:44:23
(UTC+00:00)
Language:

STARLINK-1088 - Orbit

View from above orbital plane
View from above orbital plane
View from above satellite
View from above satellite

Ground track
Ground track

The orbit data is extracted from the following two-line orbital elements,

1 44966C 20001BE  20228.47964846  .00001659  00000-0  11359-3 0  2282
2 44966  53.0004  69.5632 0001405  98.9727 341.3894 15.05581958    16
Epoch (UTC): 15 August 2020 11:30:41
Eccentricity: 0.0001405
inclination: 53.0004°
perigee height: 549 km
apogee height: 550 km
right ascension of ascending node: 69.5632°
argument of perigee: 98.9727°
revolutions per day: 15.05581958
mean anomaly at epoch: 341.3894°
orbit number at epoch: 1

The dashed part of the orbit path shows where the satellite is in the earth's shadow,  

DLR